Location: Unspecified
(55.8762°N, 37.5216°E)
Time: 04:21:26
(UTC+03:00)

ACS3 Solar Sail - Visible Passes

Search period start: 13 March 2026 00:00
Search period end: 23 March 2026 00:00
Orbit: 884 x 975 km, 97.2° (Epoch: 12 March)

Date Brightness Start Highest point End Pass type
(mag) Time Alt. Az. Time Alt. Az. Time Alt. Az.
13 Mar 3.8 00:41:46 10° NE 00:44:12 16° ENE 00:44:12 16° ENE visible
13 Mar 2.1 02:23:15 10° NNE 02:27:53 59° NNE 02:27:53 59° NNE visible
13 Mar 2.7 04:06:22 10° N 04:11:04 27° NW 04:11:34 26° WNW visible
14 Mar 3.6 00:52:41 10° NE 00:55:43 20° ENE 00:55:43 20° ENE visible
14 Mar 1.9 02:34:30 10° NNE 02:39:24 66° NNE 02:39:24 66° NNE visible
14 Mar 2.9 04:17:47 10° N 04:22:10 23° NW 04:23:04 22° WNW visible
15 Mar 3.4 01:03:40 10° NNE 01:07:11 24° ENE 01:07:11 24° ENE visible
15 Mar 1.8 02:45:44 10° NNE 02:50:52 68° NNW 02:50:52 68° NNW visible
15 Mar 3.1 04:29:10 10° N 04:33:14 20° NW 04:34:32 19° WNW visible
16 Mar 3.2 01:14:39 10° NNE 01:18:36 28° ENE 01:18:36 28° ENE visible
16 Mar 1.8 02:56:56 10° N 03:02:16 62° NW 03:02:16 62° NW visible
16 Mar 3.3 04:40:32 10° N 04:44:12 18° NW 04:45:56 16° WNW visible
17 Mar 2.9 01:25:39 10° NNE 01:29:58 33° ENE 01:29:58 33° ENE visible
17 Mar 1.9 03:08:07 10° N 03:13:37 54° WNW 03:13:37 54° WNW visible
17 Mar 3.4 04:51:54 10° N 04:55:07 15° NW 04:57:18 13° WNW visible
18 Mar 2.6 01:36:37 10° NNE 01:41:17 40° ENE 01:41:17 40° ENE visible
18 Mar 2.0 03:19:14 10° N 03:24:43 46° WNW 03:24:56 46° WNW visible
18 Mar 3.6 05:03:18 10° NNW 05:05:58 14° NW 05:08:36 10° WNW visible
19 Mar 4.1 00:07:58 10° ENE 00:08:53 11° ENE 00:08:53 11° ENE visible
19 Mar 2.3 01:47:34 10° NNE 01:52:33 48° ENE 01:52:33 48° ENE visible
19 Mar 2.2 03:30:20 10° N 03:35:40 40° WNW 03:36:12 39° WNW visible
19 Mar 3.6 05:14:47 10° NNW 05:16:45 12° NW 05:18:45 10° WNW visible
20 Mar 3.9 00:17:49 10° NE 00:20:06 13° ENE 00:20:06 13° ENE visible
20 Mar 2.0 01:58:30 10° NNE 02:03:46 58° ENE 02:03:46 58° ENE visible
20 Mar 2.5 03:41:24 10° N 03:46:32 34° WNW 03:47:25 32° WNW visible
20 Mar 3.8 05:26:40 10° NNW 05:27:29 10° NW 05:28:18 10° NW visible
21 Mar 3.7 00:28:10 10° NE 00:31:17 16° ENE 00:31:17 16° ENE visible
21 Mar 1.8 02:09:24 10° NNE 02:14:56 70° ENE 02:14:56 70° ENE visible
21 Mar 2.7 03:52:25 10° N 03:57:21 30° WNW 03:58:35 27° W visible
22 Mar 3.6 00:38:39 10° NE 00:42:24 19° ENE 00:42:24 19° ENE visible
22 Mar 1.6 02:20:16 10° NNE 02:26:03 83° E 02:26:03 83° E visible
22 Mar 2.9 04:03:25 10° N 04:08:05 26° NW 04:09:42 23° W visible
